Time,TemperatureF,DewpointF,PressureIn,WindDirection,WindDirectionDegrees,WindSpeedMPH,WindSpeedGustMPH,Humidity,HourlyPrecipIn,Conditions,Clouds,dailyrainin,SoftwareType,DateUTC
2013-03-06 00:02:00,46.0,15.0,30.35,NNW,327,0.0,-999.0,28,0.00,,,0.00,,2013-03-06 06:02:00,
2013-03-06 00:11:00,46.0,15.0,30.35,NNW,327,0.0,-999.0,28,0.00,,,0.00,,2013-03-06 06:11:00,
2013-03-06 00:22:00,45.0,15.0,30.35,NNW,328,0.0,-999.0,30,0.00,,,0.00,,2013-03-06 06:22:00,
2013-03-06 00:32:00,45.0,15.0,30.35,NNW,328,1.0,-999.0,30,0.00,,,0.00,,2013-03-06 06:32:00,
2013-03-06 00:42:00,45.0,15.0,30.35,NNW,328,1.0,-999.0,30,0.00,,,0.00,,2013-03-06 06:42:00,
2013-03-06 00:52:00,44.0,16.0,30.35,NNW,328,0.0,-999.0,32,0.00,,,0.00,,2013-03-06 06:52:00,
2013-03-06 01:01:00,44.0,16.0,30.35,NNW,328,1.0,-999.0,32,0.00,,,0.00,,2013-03-06 07:01:00,
2013-03-06 01:11:00,44.0,16.0,30.35,NNW,328,1.0,-999.0,32,0.00,,,0.00,,2013-03-06 07:11:00,
2013-03-06 01:22:00,43.0,15.0,30.35,NNW,331,4.0,-999.0,32,0.00,,,0.00,,2013-03-06 07:22:00,
2013-03-06 01:31:00,43.0,16.0,30.35,NNW,335,4.0,-999.0,33,0.00,,,0.00,,2013-03-06 07:31:00,
2013-03-06 01:42:00,43.0,16.0,30.35,NNW,335,4.0,-999.0,33,0.00,,,0.00,,2013-03-06 07:42:00,
2013-03-06 01:52:00,43.0,17.0,30.35,NNW,334,5.0,-999.0,34,0.00,,,0.00,,2013-03-06 07:52:00,
2013-03-06 02:01:00,42.0,15.0,30.35,NNW,335,4.0,-999.0,33,0.00,,,0.00,,2013-03-06 08:01:00,
2013-03-06 02:11:00,42.0,15.0,30.35,NNW,335,4.0,-999.0,33,0.00,,,0.00,,2013-03-06 08:11:00,
2013-03-06 02:21:00,41.0,17.0,30.35,NNW,327,3.0,-999.0,37,0.00,,,0.00,,2013-03-06 08:21:00,
2013-03-06 02:32:00,40.0,17.0,30.35,NW,325,4.0,-999.0,39,0.00,,,0.00,,2013-03-06 08:32:00,
2013-03-06 02:42:00,40.0,17.0,30.35,NW,325,4.0,-999.0,39,0.00,,,0.00,,2013-03-06 08:42:00,
2013-03-06 02:52:00,42.0,18.0,30.35,NNW,332,4.0,-999.0,37,0.00,,,0.00,,2013-03-06 08:52:00,
2013-03-06 03:01:00,41.0,17.0,30.35,NNW,340,7.0,-999.0,37,0.00,,,0.00,,2013-03-06 09:01:00,
2013-03-06 03:12:00,41.0,17.0,30.35,NNW,340,7.0,-999.0,37,0.00,,,0.00,,2013-03-06 09:12:00,
2013-03-06 03:21:00,40.0,17.0,30.35,NNW,338,6.0,-999.0,39,0.00,,,0.00,,2013-03-06 09:21:00,
2013-03-06 03:31:00,39.0,16.0,30.34,NNW,332,4.0,-999.0,39,0.00,,,0.00,,2013-03-06 09:31:00,
2013-03-06 03:42:00,39.0,16.0,30.34,NNW,332,4.0,-999.0,39,0.00,,,0.00,,2013-03-06 09:42:00,
2013-03-06 03:52:00,39.0,17.0,30.34,NNW,338,4.0,-999.0,40,0.00,,,0.00,,2013-03-06 09:52:00,
2013-03-06 04:01:00,38.0,17.0,30.33,NNW,341,3.0,-999.0,42,0.00,,,0.00,,2013-03-06 10:01:00,
2013-03-06 04:11:00,38.0,17.0,30.33,NNW,341,3.0,-999.0,42,0.00,,,0.00,,2013-03-06 10:11:00,
2013-03-06 04:21:00,39.0,18.0,30.34,NNW,337,1.0,-999.0,42,0.00,,,0.00,,2013-03-06 10:21:00,
2013-03-06 04:31:00,38.0,17.0,30.35,NNW,337,1.0,-999.0,42,0.00,,,0.00,,2013-03-06 10:31:00,
2013-03-06 04:42:00,38.0,17.0,30.35,NNW,337,1.0,-999.0,42,0.00,,,0.00,,2013-03-06 10:42:00,
2013-03-06 04:52:00,38.0,18.0,30.35,NNW,337,1.0,-999.0,44,0.00,,,0.00,,2013-03-06 10:52:00,
2013-03-06 05:02:00,38.0,18.0,30.35,NNW,337,2.0,-999.0,43,0.00,,,0.00,,2013-03-06 11:02:00,
2013-03-06 05:11:00,38.0,18.0,30.35,NNW,337,2.0,-999.0,43,0.00,,,0.00,,2013-03-06 11:11:00,
2013-03-06 05:22:00,38.0,18.0,30.36,NNW,337,1.0,-999.0,44,0.00,,,0.00,,2013-03-06 11:22:00,
2013-03-06 05:32:00,38.0,19.0,30.37,NNW,337,4.0,-999.0,45,0.00,,,0.00,,2013-03-06 11:32:00,
2013-03-06 05:42:00,38.0,19.0,30.37,NNW,337,4.0,-999.0,45,0.00,,,0.00,,2013-03-06 11:42:00,
2013-03-06 05:52:00,39.0,19.0,30.37,NNW,336,4.0,-999.0,44,0.00,,,0.00,,2013-03-06 11:52:00,
2013-03-06 06:02:00,39.0,18.0,30.38,NNW,330,3.0,-999.0,42,0.00,,,0.00,,2013-03-06 12:02:00,
2013-03-06 06:11:00,39.0,18.0,30.38,NNW,330,3.0,-999.0,42,0.00,,,0.00,,2013-03-06 12:11:00,
2013-03-06 06:21:00,38.0,18.0,30.39,NNW,341,3.0,-999.0,44,0.00,,,0.00,,2013-03-06 12:21:00,
2013-03-06 06:32:00,38.0,18.0,30.39,North,350,6.0,-999.0,44,0.00,,,0.00,,2013-03-06 12:32:00,
2013-03-06 06:42:00,38.0,18.0,30.39,North,350,6.0,-999.0,44,0.00,,,0.00,,2013-03-06 12:42:00,
2013-03-06 06:52:00,38.0,19.0,30.39,NNW,344,4.0,-999.0,45,0.00,,,0.00,,2013-03-06 12:52:00,
2013-03-06 07:02:00,38.0,19.0,30.39,North,350,3.0,-999.0,46,0.00,,,0.00,,2013-03-06 13:02:00,
2013-03-06 07:11:00,38.0,19.0,30.39,North,350,3.0,-999.0,46,0.00,,,0.00,,2013-03-06 13:11:00,
2013-03-06 07:22:00,38.0,19.0,30.39,North,355,6.0,-999.0,46,0.00,,,0.00,,2013-03-06 13:22:00,
2013-03-06 07:32:00,40.0,20.0,30.40,NNW,346,5.0,-999.0,45,0.00,,,0.00,,2013-03-06 13:32:00,
2013-03-06 07:42:00,40.0,20.0,30.40,NNW,346,5.0,-999.0,45,0.00,,,0.00,,2013-03-06 13:42:00,
2013-03-06 07:52:00,41.0,20.0,30.40,North,11,6.0,-999.0,43,0.00,,,0.00,,2013-03-06 13:52:00,
2013-03-06 08:01:00,43.0,21.0,30.41,North,5,6.0,-999.0,41,0.00,,,0.00,,2013-03-06 14:01:00,
2013-03-06 08:11:00,43.0,21.0,30.41,North,5,6.0,-999.0,41,0.00,,,0.00,,2013-03-06 14:11:00,
2013-03-06 08:22:00,45.0,22.0,30.42,North,9,6.0,-999.0,39,0.00,,,0.00,,2013-03-06 14:22:00,
2013-03-06 08:32:00,46.0,22.0,30.43,NNW,336,10.0,-999.0,38,0.00,,,0.00,,2013-03-06 14:32:00,
2013-03-06 08:42:00,46.0,22.0,30.43,NNW,336,10.0,-999.0,38,0.00,,,0.00,,2013-03-06 14:42:00,
2013-03-06 08:52:00,47.0,23.0,30.43,NE,52,9.0,-999.0,38,0.00,,,0.00,,2013-03-06 14:52:00,
2013-03-06 09:02:00,47.0,23.0,30.43,NE,50,12.0,-999.0,38,0.00,,,0.00,,2013-03-06 15:02:00,
2013-03-06 09:11:00,47.0,23.0,30.43,NE,50,12.0,-999.0,38,0.00,,,0.00,,2013-03-06 15:11:00,
2013-03-06 09:21:00,47.0,23.0,30.43,NNE,18,12.0,-999.0,38,0.00,,,0.00,,2013-03-06 15:21:00,
2013-03-06 09:32:00,47.0,23.0,30.43,NNE,26,13.0,-999.0,38,0.00,,,0.00,,2013-03-06 15:32:00,
2013-03-06 09:42:00,47.0,23.0,30.43,NNE,26,13.0,-999.0,38,0.00,,,0.00,,2013-03-06 15:42:00,
2013-03-06 09:52:00,47.0,23.0,30.43,NNE,25,11.0,-999.0,38,0.00,,,0.00,,2013-03-06 15:52:00,
2013-03-06 10:01:00,48.0,23.0,30.44,ENE,58,10.0,-999.0,37,0.00,,,0.00,,2013-03-06 16:01:00,
2013-03-06 10:11:00,48.0,23.0,30.44,ENE,58,10.0,-999.0,37,0.00,,,0.00,,2013-03-06 16:11:00,
2013-03-06 10:21:00,48.0,23.0,30.45,NNE,30,15.0,-999.0,37,0.00,,,0.00,,2013-03-06 16:21:00,
2013-03-06 10:32:00,51.0,24.0,30.44,NNE,24,12.0,-999.0,34,0.00,,,0.00,,2013-03-06 16:32:00,
2013-03-06 10:42:00,51.0,24.0,30.44,NNE,24,12.0,-999.0,34,0.00,,,0.00,,2013-03-06 16:42:00,
2013-03-06 10:52:00,52.0,23.0,30.44,NE,56,10.0,-999.0,32,0.00,,,0.00,,2013-03-06 16:52:00,
2013-03-06 11:01:00,53.0,24.0,30.43,NE,43,7.0,-999.0,32,0.00,,,0.00,,2013-03-06 17:01:00,
2013-03-06 11:11:00,53.0,24.0,30.43,NE,43,7.0,-999.0,32,0.00,,,0.00,,2013-03-06 17:11:00,
2013-03-06 11:21:00,54.0,22.0,30.43,ENE,61,11.0,-999.0,29,0.00,,,0.00,,2013-03-06 17:21:00,
2013-03-06 11:32:00,55.0,23.0,30.42,NE,49,10.0,-999.0,28,0.00,,,0.00,,2013-03-06 17:32:00,
2013-03-06 11:42:00,55.0,23.0,30.42,NE,49,10.0,-999.0,28,0.00,,,0.00,,2013-03-06 17:42:00,
2013-03-06 11:52:00,54.0,22.0,30.42,NE,34,8.0,-999.0,29,0.00,,,0.00,,2013-03-06 17:52:00,
2013-03-06 12:02:00,55.0,22.0,30.42,East,95,7.0,-999.0,27,0.00,,,0.00,,2013-03-06 18:02:00,
2013-03-06 12:28:00,56.0,23.0,30.41,ENE,78,7.0,-999.0,27,0.00,,,0.00,,2013-03-06 18:28:00,
2013-03-06 12:42:00,58.0,22.0,30.39,NE,46,7.0,-999.0,25,0.00,,,0.00,,2013-03-06 18:42:00,
2013-03-06 12:52:00,59.0,22.0,30.37,ENE,57,8.0,-999.0,24,0.00,,,0.00,,2013-03-06 18:52:00,
2013-03-06 13:02:00,59.0,23.0,30.37,ENE,69,10.0,-999.0,25,0.00,,,0.00,,2013-03-06 19:02:00,
2013-03-06 13:11:00,59.0,23.0,30.37,ENE,69,10.0,-999.0,25,0.00,,,0.00,,2013-03-06 19:11:00,
2013-03-06 13:21:00,59.0,22.0,30.36,NE,40,5.0,-999.0,24,0.00,,,0.00,,2013-03-06 19:21:00,
2013-03-06 13:32:00,61.0,22.0,30.33,NNE,22,4.0,-999.0,22,0.00,,,0.00,,2013-03-06 19:32:00,
2013-03-06 13:43:00,61.0,22.0,30.33,NNE,22,4.0,-999.0,22,0.00,,,0.00,,2013-03-06 19:43:00,
2013-03-06 13:53:00,61.0,22.0,30.32,ENE,57,2.0,-999.0,22,0.00,,,0.00,,2013-03-06 19:53:00,
2013-03-06 14:01:00,62.0,22.0,30.32,SE,128,5.0,-999.0,21,0.00,,,0.00,,2013-03-06 20:01:00,
2013-03-06 14:11:00,62.0,22.0,30.32,SE,128,5.0,-999.0,21,0.00,,,0.00,,2013-03-06 20:11:00,
2013-03-06 14:22:00,63.0,22.0,30.31,NE,38,7.0,-999.0,21,0.00,,,0.00,,2013-03-06 20:22:00,
2013-03-06 14:32:00,63.0,19.0,30.29,East,81,5.0,-999.0,18,0.00,,,0.00,,2013-03-06 20:32:00,
2013-03-06 14:42:00,63.0,19.0,30.29,East,81,5.0,-999.0,18,0.00,,,0.00,,2013-03-06 20:42:00,
2013-03-06 14:53:00,63.0,18.0,30.28,ESE,105,7.0,-999.0,17,0.00,,,0.00,,2013-03-06 20:53:00,
2013-03-06 15:02:00,64.0,17.0,30.27,ESE,106,7.0,-999.0,16,0.00,,,0.00,,2013-03-06 21:02:00,
2013-03-06 15:11:00,64.0,17.0,30.27,ESE,106,7.0,-999.0,16,0.00,,,0.00,,2013-03-06 21:11:00,
2013-03-06 15:22:00,63.0,18.0,30.27,ESE,122,8.0,-999.0,17,0.00,,,0.00,,2013-03-06 21:22:00,
2013-03-06 15:32:00,63.0,18.0,30.26,East,89,6.0,-999.0,17,0.00,,,0.00,,2013-03-06 21:32:00,
2013-03-06 15:42:00,63.0,18.0,30.26,East,89,6.0,-999.0,17,0.00,,,0.00,,2013-03-06 21:42:00,
2013-03-06 15:52:00,63.0,16.0,30.25,SE,137,8.0,-999.0,16,0.00,,,0.00,,2013-03-06 21:52:00,
2013-03-06 16:01:00,63.0,16.0,30.25,ESE,104,7.0,-999.0,16,0.00,,,0.00,,2013-03-06 22:01:00,
2013-03-06 16:11:00,63.0,16.0,30.25,ESE,104,7.0,-999.0,16,0.00,,,0.00,,2013-03-06 22:11:00,
2013-03-06 16:21:00,63.0,18.0,30.24,ESE,107,5.0,-999.0,17,0.00,,,0.00,,2013-03-06 22:21:00,
2013-03-06 16:32:00,63.0,19.0,30.24,East,92,6.0,-999.0,18,0.00,,,0.00,,2013-03-06 22:32:00,
2013-03-06 16:41:00,63.0,19.0,30.24,East,92,6.0,-999.0,18,0.00,,,0.00,,2013-03-06 22:41:00,
2013-03-06 16:52:00,63.0,19.0,30.22,ESE,103,8.0,-999.0,18,0.00,,,0.00,,2013-03-06 22:52:00,
2013-03-06 17:01:00,63.0,18.0,30.23,ENE,72,4.0,-999.0,17,0.00,,,0.00,,2013-03-06 23:01:00,
2013-03-06 17:11:00,63.0,18.0,30.23,ENE,72,4.0,-999.0,17,0.00,,,0.00,,2013-03-06 23:11:00,
2013-03-06 17:21:00,63.0,20.0,30.24,NE,51,2.0,-999.0,19,0.00,,,0.00,,2013-03-06 23:21:00,
2013-03-06 17:32:00,63.0,20.0,30.23,East,100,0.0,-999.0,19,0.00,,,0.00,,2013-03-06 23:32:00,
2013-03-06 17:42:00,63.0,20.0,30.23,East,100,0.0,-999.0,19,0.00,,,0.00,,2013-03-06 23:42:00,
2013-03-06 17:52:00,63.0,20.0,30.23,South,180,5.0,-999.0,19,0.00,,,0.00,,2013-03-06 23:52:00,
2013-03-06 18:01:00,62.0,19.0,30.23,SE,145,7.0,-999.0,19,0.00,,,0.00,,2013-03-07 00:01:00,
2013-03-06 18:11:00,62.0,19.0,30.23,SE,145,7.0,-999.0,19,0.00,,,0.00,,2013-03-07 00:11:00,
2013-03-06 18:21:00,62.0,20.0,30.23,SSE,149,3.0,-999.0,20,0.00,,,0.00,,2013-03-07 00:21:00,
2013-03-06 18:32:00,61.0,18.0,30.24,SSE,158,3.0,-999.0,19,0.00,,,0.00,,2013-03-07 00:32:00,
2013-03-06 18:41:00,61.0,18.0,30.24,SSE,158,3.0,-999.0,19,0.00,,,0.00,,2013-03-07 00:41:00,
2013-03-06 18:52:00,61.0,18.0,30.24,SSE,158,2.0,-999.0,19,0.00,,,0.00,,2013-03-07 00:52:00,
2013-03-06 19:01:00,60.0,19.0,30.24,SSE,167,1.0,-999.0,20,0.00,,,0.00,,2013-03-07 01:01:00,
2013-03-06 19:11:00,60.0,19.0,30.24,SSE,167,1.0,-999.0,20,0.00,,,0.00,,2013-03-07 01:11:00,
2013-03-06 19:21:00,59.0,18.0,30.24,SSE,167,2.0,-999.0,20,0.00,,,0.00,,2013-03-07 01:21:00,
2013-03-06 19:31:00,58.0,19.0,30.23,SSE,167,0.0,-999.0,22,0.00,,,0.00,,2013-03-07 01:31:00,
2013-03-06 19:41:00,58.0,19.0,30.23,SSE,167,0.0,-999.0,22,0.00,,,0.00,,2013-03-07 01:41:00,
2013-03-06 19:52:00,57.0,21.0,30.22,SSE,167,0.0,-999.0,24,0.00,,,0.00,,2013-03-07 01:52:00,
2013-03-06 20:01:00,55.0,21.0,30.22,SSE,167,0.0,-999.0,26,0.00,,,0.00,,2013-03-07 02:01:00,
2013-03-06 20:11:00,55.0,21.0,30.22,SSE,167,0.0,-999.0,26,0.00,,,0.00,,2013-03-07 02:11:00,
2013-03-06 20:21:00,55.0,21.0,30.22,SSE,167,0.0,-999.0,26,0.00,,,0.00,,2013-03-07 02:21:00,
2013-03-06 20:32:00,56.0,23.0,30.24,SSE,167,4.0,-999.0,27,0.00,,,0.00,,2013-03-07 02:32:00,
2013-03-06 20:41:00,56.0,23.0,30.24,SSE,167,4.0,-999.0,27,0.00,,,0.00,,2013-03-07 02:41:00,
2013-03-06 20:52:00,56.0,23.0,30.24,SSE,167,4.0,-999.0,27,0.00,,,0.00,,2013-03-07 02:52:00,
2013-03-06 21:02:00,55.0,22.0,30.24,SSW,199,1.0,-999.0,27,0.00,,,0.00,,2013-03-07 03:02:00,
2013-03-06 21:11:00,54.0,22.0,30.24,SSW,199,0.0,-999.0,28,0.00,,,0.00,,2013-03-07 03:11:00,
2013-03-06 21:21:00,54.0,22.0,30.24,SSW,199,0.0,-999.0,28,0.00,,,0.00,,2013-03-07 03:21:00,
2013-03-06 21:32:00,54.0,22.0,30.24,SSW,199,0.0,-999.0,28,0.00,,,0.00,,2013-03-07 03:32:00,
2013-03-06 21:42:00,54.0,22.0,30.24,SSW,199,0.0,-999.0,28,0.00,,,0.00,,2013-03-07 03:42:00,
2013-03-06 21:52:00,52.0,22.0,30.24,SSW,199,1.0,-999.0,31,0.00,,,0.00,,2013-03-07 03:52:00,
2013-03-06 22:01:00,53.0,22.0,30.24,SSW,199,1.0,-999.0,30,0.00,,,0.00,,2013-03-07 04:01:00,
2013-03-06 22:11:00,53.0,22.0,30.24,SSW,199,1.0,-999.0,30,0.00,,,0.00,,2013-03-07 04:11:00,
2013-03-06 22:21:00,52.0,22.0,30.24,SSW,199,1.0,-999.0,30,0.00,,,0.00,,2013-03-07 04:21:00,
2013-03-06 22:31:00,53.0,22.0,30.24,SSW,199,2.0,-999.0,29,0.00,,,0.00,,2013-03-07 04:31:00,
2013-03-06 22:42:00,53.0,22.0,30.24,SSW,199,2.0,-999.0,29,0.00,,,0.00,,2013-03-07 04:42:00,
2013-03-06 22:52:00,53.0,22.0,30.24,SSW,199,1.0,-999.0,29,0.00,,,0.00,,2013-03-07 04:52:00,
2013-03-06 23:01:00,52.0,22.0,30.23,SSW,199,0.0,-999.0,31,0.00,,,0.00,,2013-03-07 05:01:00,
2013-03-06 23:12:00,52.0,22.0,30.23,SSW,199,0.0,-999.0,31,0.00,,,0.00,,2013-03-07 05:12:00,
2013-03-06 23:22:00,50.0,22.0,30.24,SSW,199,1.0,-999.0,33,0.00,,,0.00,,2013-03-07 05:22:00,
2013-03-06 23:32:00,51.0,24.0,30.24,South,181,4.0,-999.0,34,0.00,,,0.00,,2013-03-07 05:32:00,
2013-03-06 23:42:00,51.0,24.0,30.24,South,181,4.0,-999.0,34,0.00,,,0.00,,2013-03-07 05:42:00,
2013-03-06 23:52:00,50.0,25.0,30.24,South,178,4.0,-999.0,37,0.00,,,0.00,,2013-03-07 05:52:00,